User: anonymous   Login
Location: Unspecified
(0.0000°N, 0.0000°E)
Time: 06:33:11
(UTC+00:00)
Language:

STARLINK-35014 - Orbit

View from above orbital plane
View from above orbital plane
View from above satellite
View from above satellite

Ground track
Ground track

The orbit is defined by the following mean orbital elements,

1 65429U          26145.52303196 +.00000000 +00000-0 +72771-3 0 00003
2 65429  53.1588 235.7526 0001130  85.4648 274.6482 15.30201579    04
Epoch (UTC): 25 May 2026 12:33:09
Eccentricity: 0.0001130
inclination: 53.1588°
perigee height: 474 km
apogee height: 476 km
right ascension of ascending node: 235.7526°
argument of perigee: 85.4648°
revolutions per day: 15.30201579
mean anomaly at epoch: 274.6482°

The dashed part of the orbit path shows where the satellite is in the earth's shadow,  

DLR